Year,Month,Day,Hour,Minute,Value (Times are PST for temperature in C)
2014,08,05,00,00,18.70
2014,08,05,00,01,18.70
2014,08,05,00,02,18.70
2014,08,05,00,03,18.60
2014,08,05,00,04,18.60
2014,08,05,00,05,18.60
2014,08,05,00,06,18.60
2014,08,05,00,07,18.60
2014,08,05,00,08,18.60
2014,08,05,00,09,18.60
2014,08,05,00,10,18.60
2014,08,05,00,11,18.60
2014,08,05,00,12,18.60
2014,08,05,00,13,18.60
2014,08,05,00,14,18.60
2014,08,05,00,15,18.60
2014,08,05,00,16,18.50
2014,08,05,00,17,18.50
2014,08,05,00,18,18.50
2014,08,05,00,19,18.50
2014,08,05,00,20,18.50
2014,08,05,00,21,18.40
2014,08,05,00,22,18.40
2014,08,05,00,23,18.40
2014,08,05,00,24,18.40
2014,08,05,00,25,18.40
2014,08,05,00,26,18.40
2014,08,05,00,27,18.30
2014,08,05,00,28,18.30
2014,08,05,00,29,18.30
2014,08,05,00,30,18.30
2014,08,05,00,31,18.30
2014,08,05,00,32,18.30
2014,08,05,00,33,18.30
2014,08,05,00,34,18.20
2014,08,05,00,35,18.20
2014,08,05,00,36,18.20
2014,08,05,00,37,18.20
2014,08,05,00,38,18.20
2014,08,05,00,39,18.10
2014,08,05,00,40,18.10
2014,08,05,00,41,18.10
2014,08,05,00,42,18.10
2014,08,05,00,43,18.10
2014,08,05,00,44,18.00
2014,08,05,00,45,18.00
2014,08,05,00,46,17.90
2014,08,05,00,47,17.90
2014,08,05,00,48,17.90
2014,08,05,00,49,17.80
2014,08,05,00,50,17.80
2014,08,05,00,51,17.80
2014,08,05,00,52,17.80
2014,08,05,00,53,17.80
2014,08,05,00,54,17.80
2014,08,05,00,55,17.70
2014,08,05,00,56,17.70
2014,08,05,00,57,17.70
2014,08,05,00,58,17.70
2014,08,05,00,59,17.60
2014,08,05,01,00,17.60
2014,08,05,01,01,17.60
2014,08,05,01,02,17.60
2014,08,05,01,03,17.60
2014,08,05,01,04,17.60
2014,08,05,01,05,17.50
2014,08,05,01,06,17.50
2014,08,05,01,07,17.50
2014,08,05,01,08,17.40
2014,08,05,01,09,17.40
2014,08,05,01,10,17.40
2014,08,05,01,11,17.30
2014,08,05,01,12,17.30
2014,08,05,01,13,17.30
2014,08,05,01,14,17.30
2014,08,05,01,15,17.30
2014,08,05,01,16,17.30
2014,08,05,01,17,17.20
2014,08,05,01,18,17.20
2014,08,05,01,19,17.20
2014,08,05,01,20,17.20
2014,08,05,01,21,17.20
2014,08,05,01,22,17.20
2014,08,05,01,23,17.10
2014,08,05,01,24,17.10
2014,08,05,01,25,17.10
2014,08,05,01,26,17.10
2014,08,05,01,27,17.10
2014,08,05,01,28,17.00
2014,08,05,01,29,17.00
2014,08,05,01,30,17.00
2014,08,05,01,31,16.90
2014,08,05,01,32,16.90
2014,08,05,01,33,16.90
2014,08,05,01,34,16.80
2014,08,05,01,35,16.80
2014,08,05,01,36,16.80
2014,08,05,01,37,16.80
2014,08,05,01,38,16.80
2014,08,05,01,39,16.80
2014,08,05,01,40,16.70
2014,08,05,01,41,16.70
2014,08,05,01,42,16.70
2014,08,05,01,43,16.70
2014,08,05,01,44,16.60
2014,08,05,01,45,16.60
2014,08,05,01,46,16.60
2014,08,05,01,47,16.60
2014,08,05,01,48,16.60
2014,08,05,01,49,16.50
2014,08,05,01,50,16.50
2014,08,05,01,51,16.50
2014,08,05,01,52,16.50
2014,08,05,01,53,16.50
2014,08,05,01,54,16.40
2014,08,05,01,55,16.40
2014,08,05,01,56,16.40
2014,08,05,01,57,16.40
2014,08,05,01,58,16.30
2014,08,05,01,59,16.30
2014,08,05,02,00,16.30
2014,08,05,02,01,16.30
2014,08,05,02,02,16.30
2014,08,05,02,03,16.30
2014,08,05,02,04,16.30
2014,08,05,02,05,16.30
2014,08,05,02,06,16.30
2014,08,05,02,07,16.30
2014,08,05,02,08,16.30
2014,08,05,02,09,16.30
2014,08,05,02,10,16.30
2014,08,05,02,11,16.30
2014,08,05,02,12,16.20
2014,08,05,02,13,16.20
2014,08,05,02,14,16.20
2014,08,05,02,15,16.20
2014,08,05,02,16,16.20
2014,08,05,02,17,16.20
2014,08,05,02,18,16.20
2014,08,05,02,19,16.20
2014,08,05,02,20,16.20
2014,08,05,02,21,16.10
2014,08,05,02,22,16.10
2014,08,05,02,23,16.10
2014,08,05,02,24,16.10
2014,08,05,02,25,16.10
2014,08,05,02,26,16.10
2014,08,05,02,27,16.10
2014,08,05,02,28,16.00
2014,08,05,02,29,16.00
2014,08,05,02,30,16.00
2014,08,05,02,31,16.00
2014,08,05,02,32,16.00
2014,08,05,02,33,16.00
2014,08,05,02,34,16.00
2014,08,05,02,35,15.90
2014,08,05,02,36,15.90
2014,08,05,02,37,15.90
2014,08,05,02,38,15.90
2014,08,05,02,39,15.90
2014,08,05,02,40,15.90
2014,08,05,02,41,15.90
2014,08,05,02,42,15.90
2014,08,05,02,43,15.90
2014,08,05,02,44,15.90
2014,08,05,02,45,15.90
2014,08,05,02,46,15.90
2014,08,05,02,47,15.90
2014,08,05,02,48,15.90
2014,08,05,02,49,15.90
2014,08,05,02,50,15.90
2014,08,05,02,51,15.90
2014,08,05,02,52,15.90
2014,08,05,02,53,15.90
2014,08,05,02,54,15.90
2014,08,05,02,55,15.90
2014,08,05,02,56,15.90
2014,08,05,02,57,15.90
2014,08,05,02,58,15.90
2014,08,05,02,59,15.90
2014,08,05,03,00,15.80
2014,08,05,03,01,15.80
2014,08,05,03,02,15.80
2014,08,05,03,03,15.80
2014,08,05,03,04,15.80
2014,08,05,03,05,15.70
2014,08,05,03,06,15.70
2014,08,05,03,07,15.70
2014,08,05,03,08,15.70
2014,08,05,03,09,15.70
2014,08,05,03,10,15.70
2014,08,05,03,11,15.60
2014,08,05,03,12,15.60
2014,08,05,03,13,15.60
2014,08,05,03,14,15.60
2014,08,05,03,15,15.50
2014,08,05,03,16,15.40
2014,08,05,03,17,15.40
2014,08,05,03,18,15.40
2014,08,05,03,19,15.40
2014,08,05,03,20,15.40
2014,08,05,03,21,15.40
2014,08,05,03,22,15.40
2014,08,05,03,23,15.40
2014,08,05,03,24,15.40
2014,08,05,03,25,15.30
2014,08,05,03,26,15.30
2014,08,05,03,27,15.30
2014,08,05,03,28,15.30
2014,08,05,03,29,15.30
2014,08,05,03,30,15.30
2014,08,05,03,31,15.30
2014,08,05,03,32,15.30
2014,08,05,03,33,15.30
2014,08,05,03,34,15.30
2014,08,05,03,35,15.30
2014,08,05,03,36,15.30
2014,08,05,03,37,15.30
2014,08,05,03,38,15.30
2014,08,05,03,39,15.30
2014,08,05,03,40,15.30
2014,08,05,03,41,15.30
2014,08,05,03,42,15.30
2014,08,05,03,43,15.30
2014,08,05,03,44,15.30
2014,08,05,03,45,15.30
2014,08,05,03,46,15.30
2014,08,05,03,47,15.30
2014,08,05,03,48,15.30
2014,08,05,03,49,15.30
2014,08,05,03,50,15.30
2014,08,05,03,51,15.30
2014,08,05,03,52,15.20
2014,08,05,03,53,15.20
2014,08,05,03,54,15.20
2014,08,05,03,55,15.20
2014,08,05,03,56,15.20
2014,08,05,03,57,15.20
2014,08,05,03,58,15.20
2014,08,05,03,59,15.20
2014,08,05,04,00,15.10
2014,08,05,04,01,15.10
2014,08,05,04,02,15.10
2014,08,05,04,03,15.10
2014,08,05,04,04,15.10
2014,08,05,04,05,15.10
2014,08,05,04,06,15.10
2014,08,05,04,07,15.10
2014,08,05,04,08,15.10
2014,08,05,04,09,15.10
2014,08,05,04,10,15.10
2014,08,05,04,11,15.10
2014,08,05,04,12,15.10
2014,08,05,04,13,15.10
2014,08,05,04,14,15.10
2014,08,05,04,15,15.10
2014,08,05,04,16,15.10
2014,08,05,04,17,15.10
2014,08,05,04,18,15.10
2014,08,05,04,19,15.10
2014,08,05,04,20,15.00
2014,08,05,04,21,15.00
2014,08,05,04,22,15.00
2014,08,05,04,23,15.00
2014,08,05,04,24,14.90
2014,08,05,04,25,14.90
2014,08,05,04,26,14.90
2014,08,05,04,27,14.90
2014,08,05,04,28,14.90
2014,08,05,04,29,14.80
2014,08,05,04,30,14.80
2014,08,05,04,31,14.80
2014,08,05,04,32,14.80
2014,08,05,04,33,14.80
2014,08,05,04,34,14.80
2014,08,05,04,35,14.80
2014,08,05,04,36,14.80
2014,08,05,04,37,14.80
2014,08,05,04,38,14.80
2014,08,05,04,39,14.70
2014,08,05,04,40,14.70
2014,08,05,04,41,14.70
2014,08,05,04,42,14.70
2014,08,05,04,43,14.70
2014,08,05,04,44,14.60
2014,08,05,04,45,14.60
2014,08,05,04,46,14.60
2014,08,05,04,47,14.60
2014,08,05,04,48,14.60
2014,08,05,04,49,14.60
2014,08,05,04,50,14.50
2014,08,05,04,51,14.50
2014,08,05,04,52,14.50
2014,08,05,04,53,14.50
2014,08,05,04,54,14.50
2014,08,05,04,55,14.50
2014,08,05,04,56,14.40
2014,08,05,04,57,14.40
2014,08,05,04,58,14.40
2014,08,05,04,59,14.40
2014,08,05,05,00,14.30
2014,08,05,05,01,14.30
2014,08,05,05,02,14.30
2014,08,05,05,03,14.30
2014,08,05,05,04,14.30
2014,08,05,05,05,14.20
2014,08,05,05,06,14.20
2014,08,05,05,07,14.20
2014,08,05,05,08,14.20
2014,08,05,05,09,14.20
2014,08,05,05,10,14.30
2014,08,05,05,11,14.30
2014,08,05,05,12,14.30
2014,08,05,05,13,14.30
2014,08,05,05,14,14.30
2014,08,05,05,15,14.30
2014,08,05,05,16,14.30
2014,08,05,05,17,14.30
2014,08,05,05,18,14.30
2014,08,05,05,19,14.30
2014,08,05,05,20,14.30
2014,08,05,05,21,14.30
2014,08,05,05,22,14.40
2014,08,05,05,23,14.40
2014,08,05,05,24,14.40
2014,08,05,05,25,14.40
2014,08,05,05,26,14.40
2014,08,05,05,27,14.40
2014,08,05,05,28,14.40
2014,08,05,05,29,14.40
2014,08,05,05,30,14.40
2014,08,05,05,31,14.40
2014,08,05,05,32,14.40
2014,08,05,05,33,14.40
2014,08,05,05,34,14.40
2014,08,05,05,35,14.40
2014,08,05,05,36,14.30
2014,08,05,05,37,14.30
2014,08,05,05,38,14.30
2014,08,05,05,39,14.30
2014,08,05,05,40,14.30
2014,08,05,05,41,14.20
2014,08,05,05,42,14.20
2014,08,05,05,43,14.20
2014,08,05,05,44,14.20
2014,08,05,05,45,14.20
2014,08,05,05,46,14.20
2014,08,05,05,47,14.10
2014,08,05,05,48,14.10
2014,08,05,05,49,14.10
2014,08,05,05,50,14.10
2014,08,05,05,51,14.10
2014,08,05,05,52,14.10
2014,08,05,05,53,14.10
2014,08,05,05,54,14.10
2014,08,05,05,55,14.10
2014,08,05,05,56,14.10
2014,08,05,05,57,14.10
2014,08,05,05,58,14.00
2014,08,05,05,59,14.00
2014,08,05,06,00,14.00
2014,08,05,06,01,14.00
2014,08,05,06,02,14.00
2014,08,05,06,03,14.00
2014,08,05,06,04,14.00
2014,08,05,06,05,14.00
2014,08,05,06,06,14.00
2014,08,05,06,07,14.00
2014,08,05,06,08,14.00
2014,08,05,06,09,14.00
2014,08,05,06,10,14.00
2014,08,05,06,11,14.10
2014,08,05,06,12,14.10
2014,08,05,06,13,14.10
2014,08,05,06,14,14.10
2014,08,05,06,15,14.10
2014,08,05,06,16,14.10
2014,08,05,06,17,14.10
2014,08,05,06,18,14.10
2014,08,05,06,19,14.10
2014,08,05,06,20,14.10
2014,08,05,06,21,14.10
2014,08,05,06,22,14.10
2014,08,05,06,23,14.10
2014,08,05,06,24,14.10
2014,08,05,06,25,14.10
2014,08,05,06,26,14.10
2014,08,05,06,27,14.10
2014,08,05,06,28,14.10
2014,08,05,06,29,14.10
2014,08,05,06,30,14.10
2014,08,05,06,31,14.10
2014,08,05,06,32,14.10
2014,08,05,06,33,14.10
2014,08,05,06,34,14.10
2014,08,05,06,35,14.10
2014,08,05,06,36,14.10
2014,08,05,06,37,14.10
2014,08,05,06,38,14.10
2014,08,05,06,39,14.10
2014,08,05,06,40,14.10
2014,08,05,06,41,14.10
2014,08,05,06,42,14.10
2014,08,05,06,43,14.10
2014,08,05,06,44,14.10
2014,08,05,06,45,14.20
2014,08,05,06,46,14.20
2014,08,05,06,47,14.20
2014,08,05,06,48,14.20
2014,08,05,06,49,14.20
2014,08,05,06,50,14.20
2014,08,05,06,51,14.20
2014,08,05,06,52,14.30
2014,08,05,06,53,14.30
2014,08,05,06,54,14.30
2014,08,05,06,55,14.30
2014,08,05,06,56,14.40
2014,08,05,06,57,14.40
2014,08,05,06,58,14.40
2014,08,05,06,59,14.50
2014,08,05,07,00,14.50
2014,08,05,07,01,14.60
2014,08,05,07,02,14.60
2014,08,05,07,03,14.60
2014,08,05,07,04,14.70
2014,08,05,07,05,14.70
2014,08,05,07,06,14.80
2014,08,05,07,07,14.90
2014,08,05,07,08,14.90
2014,08,05,07,09,15.00
2014,08,05,07,10,15.10
2014,08,05,07,11,15.20
2014,08,05,07,12,15.30
2014,08,05,07,13,15.40
2014,08,05,07,14,15.40
2014,08,05,07,15,15.50
2014,08,05,07,16,15.70
2014,08,05,07,17,15.80
2014,08,05,07,18,15.90
2014,08,05,07,19,16.00
2014,08,05,07,20,16.20
2014,08,05,07,21,16.30
2014,08,05,07,22,16.40
2014,08,05,07,23,16.60
2014,08,05,07,24,16.70
2014,08,05,07,25,16.80
2014,08,05,07,26,17.00
2014,08,05,07,27,17.10
2014,08,05,07,28,17.30
2014,08,05,07,29,17.40
2014,08,05,07,30,17.60
2014,08,05,07,31,17.70
2014,08,05,07,32,17.80
2014,08,05,07,33,17.90
2014,08,05,07,34,18.00
2014,08,05,07,35,18.10
2014,08,05,07,36,18.20
2014,08,05,07,37,18.40
2014,08,05,07,38,18.50
2014,08,05,07,39,18.70
2014,08,05,07,40,18.80
2014,08,05,07,41,18.90
2014,08,05,07,42,19.00
2014,08,05,07,43,19.10
2014,08,05,07,44,19.10
2014,08,05,07,45,19.10
2014,08,05,07,46,19.00
2014,08,05,07,47,18.90
2014,08,05,07,48,18.90
2014,08,05,07,49,18.80
2014,08,05,07,50,18.70
2014,08,05,07,51,18.70
2014,08,05,07,52,18.70
2014,08,05,07,53,18.60
2014,08,05,07,54,18.60
2014,08,05,07,55,18.60
2014,08,05,07,56,18.60
2014,08,05,07,57,18.60
2014,08,05,07,58,18.60
2014,08,05,07,59,18.60
2014,08,05,08,00,18.70
2014,08,05,08,01,18.70
2014,08,05,08,02,18.80
2014,08,05,08,03,18.80
2014,08,05,08,04,18.90
2014,08,05,08,05,19.00
2014,08,05,08,06,19.10
2014,08,05,08,07,19.10
2014,08,05,08,08,19.20
2014,08,05,08,09,19.30
2014,08,05,08,10,19.30
2014,08,05,08,11,19.30
2014,08,05,08,12,19.30
2014,08,05,08,13,19.30
2014,08,05,08,14,19.30
2014,08,05,08,15,19.30
2014,08,05,08,16,19.30
2014,08,05,08,17,19.30
2014,08,05,08,18,19.30
2014,08,05,08,19,19.30
2014,08,05,08,20,19.30
2014,08,05,08,21,19.40
2014,08,05,08,22,19.50
2014,08,05,08,23,19.50
2014,08,05,08,24,19.60
2014,08,05,08,25,19.70
2014,08,05,08,26,19.70
2014,08,05,08,27,19.80
2014,08,05,08,28,19.90
2014,08,05,08,29,20.00
2014,08,05,08,30,20.00
2014,08,05,08,31,20.10
2014,08,05,08,32,20.20
2014,08,05,08,33,20.30
2014,08,05,08,34,20.30
2014,08,05,08,35,20.40
2014,08,05,08,36,20.30
2014,08,05,08,37,20.30
2014,08,05,08,38,20.30
2014,08,05,08,39,20.40
2014,08,05,08,40,20.40
2014,08,05,08,41,20.40
2014,08,05,08,42,20.40
2014,08,05,08,43,20.40
2014,08,05,08,44,20.40
2014,08,05,08,45,20.50
2014,08,05,08,46,20.60
2014,08,05,08,47,20.60
2014,08,05,08,48,20.60
2014,08,05,08,49,20.70
2014,08,05,08,50,20.70
2014,08,05,08,51,20.70
2014,08,05,08,52,20.80
2014,08,05,08,53,20.70
2014,08,05,08,54,20.70
2014,08,05,08,55,20.70
2014,08,05,08,56,20.70
2014,08,05,08,57,20.60
2014,08,05,08,58,20.60
2014,08,05,08,59,20.50
2014,08,05,09,00,20.50
2014,08,05,09,01,20.50
2014,08,05,09,02,20.50
2014,08,05,09,03,20.50
2014,08,05,09,04,20.50
2014,08,05,09,05,20.50
2014,08,05,09,06,20.50
2014,08,05,09,07,20.50
2014,08,05,09,08,20.50
2014,08,05,09,09,20.50
2014,08,05,09,10,20.60
2014,08,05,09,11,20.60
2014,08,05,09,12,20.60
2014,08,05,09,13,20.60
2014,08,05,09,14,20.50
2014,08,05,09,15,20.50
2014,08,05,09,16,20.50
2014,08,05,09,17,20.50
2014,08,05,09,18,20.40
2014,08,05,09,19,20.50
2014,08,05,09,20,20.50
2014,08,05,09,21,20.50
2014,08,05,09,22,20.60
2014,08,05,09,23,20.60
2014,08,05,09,24,20.60
2014,08,05,09,25,20.60
2014,08,05,09,26,20.60
2014,08,05,09,27,20.60
2014,08,05,09,28,20.60
2014,08,05,09,29,20.60
2014,08,05,09,30,20.50
2014,08,05,09,31,20.50
2014,08,05,09,32,20.50
2014,08,05,09,33,20.50
2014,08,05,09,34,20.50
2014,08,05,09,35,20.40
2014,08,05,09,36,20.40
2014,08,05,09,37,20.40
2014,08,05,09,38,20.40
2014,08,05,09,39,20.50
2014,08,05,09,40,20.60
2014,08,05,09,41,20.60
2014,08,05,09,42,20.70
2014,08,05,09,43,20.80
2014,08,05,09,44,20.80
2014,08,05,09,45,20.80
2014,08,05,09,46,20.80
2014,08,05,09,47,20.70
2014,08,05,09,48,20.70
2014,08,05,09,49,20.60
2014,08,05,09,50,20.60
2014,08,05,09,51,20.50
2014,08,05,09,52,20.50
2014,08,05,09,53,20.50
2014,08,05,09,54,20.40
2014,08,05,09,55,20.40
2014,08,05,09,56,20.40
2014,08,05,09,57,20.40
2014,08,05,09,58,20.40
2014,08,05,09,59,20.40
2014,08,05,10,00,20.40
2014,08,05,10,01,20.50
2014,08,05,10,02,20.50
2014,08,05,10,03,20.60
2014,08,05,10,04,20.60
2014,08,05,10,05,20.70
2014,08,05,10,06,20.70
2014,08,05,10,07,20.70
2014,08,05,10,08,20.60
2014,08,05,10,09,20.50
2014,08,05,10,10,20.50
2014,08,05,10,11,20.40
2014,08,05,10,12,20.40
2014,08,05,10,13,20.40
2014,08,05,10,14,20.40
2014,08,05,10,15,20.40
2014,08,05,10,16,20.30
2014,08,05,10,17,20.40
2014,08,05,10,18,20.40
2014,08,05,10,19,20.50
2014,08,05,10,20,20.50
2014,08,05,10,21,20.50
2014,08,05,10,22,20.50
2014,08,05,10,23,20.60
2014,08,05,10,24,20.60
2014,08,05,10,25,20.60
2014,08,05,10,26,20.50
2014,08,05,10,27,20.50
2014,08,05,10,28,20.50
2014,08,05,10,29,20.50
2014,08,05,10,30,20.40
2014,08,05,10,31,20.40
2014,08,05,10,32,20.50
2014,08,05,10,33,20.50
2014,08,05,10,34,20.60
2014,08,05,10,35,20.60
2014,08,05,10,36,20.50
2014,08,05,10,37,20.50
2014,08,05,10,38,20.40
2014,08,05,10,39,20.30
2014,08,05,10,40,20.30
2014,08,05,10,41,20.30
2014,08,05,10,42,20.30
2014,08,05,10,43,20.30
2014,08,05,10,44,20.30
2014,08,05,10,45,20.40
2014,08,05,10,46,20.40
2014,08,05,10,47,20.50
2014,08,05,10,48,20.60
2014,08,05,10,49,20.70
2014,08,05,10,50,20.80
2014,08,05,10,51,20.90
2014,08,05,10,52,21.00
2014,08,05,10,53,21.20
2014,08,05,10,54,21.30
2014,08,05,10,55,21.40
2014,08,05,10,56,21.40
2014,08,05,10,57,21.50
2014,08,05,10,58,21.50
2014,08,05,10,59,21.60
2014,08,05,11,00,21.60
2014,08,05,11,01,21.60
2014,08,05,11,02,21.60
2014,08,05,11,03,21.60
2014,08,05,11,04,21.60
2014,08,05,11,05,21.70
2014,08,05,11,06,21.70
2014,08,05,11,07,21.70
2014,08,05,11,08,21.70
2014,08,05,11,09,21.80
2014,08,05,11,10,21.90
2014,08,05,11,11,22.10
2014,08,05,11,12,22.20
2014,08,05,11,13,22.30
2014,08,05,11,14,22.50
2014,08,05,11,15,22.60
2014,08,05,11,16,22.70
2014,08,05,11,17,22.80
2014,08,05,11,18,22.80
2014,08,05,11,19,22.90
2014,08,05,11,20,23.00
2014,08,05,11,21,23.10
2014,08,05,11,22,23.00
2014,08,05,11,23,22.90
2014,08,05,11,24,22.80
2014,08,05,11,25,22.80
2014,08,05,11,26,22.80
2014,08,05,11,27,22.80
2014,08,05,11,28,22.80
2014,08,05,11,29,22.80
2014,08,05,11,30,22.60
2014,08,05,11,31,22.40
2014,08,05,11,32,22.30
2014,08,05,11,33,22.30
2014,08,05,11,34,22.30
2014,08,05,11,35,22.40
2014,08,05,11,36,22.50
2014,08,05,11,37,22.60
2014,08,05,11,38,22.80
2014,08,05,11,39,22.80
2014,08,05,11,40,22.80
2014,08,05,11,41,22.80
2014,08,05,11,42,22.70
2014,08,05,11,43,22.70
2014,08,05,11,44,22.80
2014,08,05,11,45,22.80
2014,08,05,11,46,22.90
2014,08,05,11,47,22.90
2014,08,05,11,48,22.90
2014,08,05,11,49,22.90
2014,08,05,11,50,22.80
2014,08,05,11,51,22.80
2014,08,05,11,52,22.80
2014,08,05,11,53,22.80
2014,08,05,11,54,22.80
2014,08,05,11,55,22.80
2014,08,05,11,56,22.80
2014,08,05,11,57,22.80
2014,08,05,11,58,22.90
2014,08,05,11,59,22.80
2014,08,05,12,00,22.80
2014,08,05,12,01,22.80
2014,08,05,12,02,22.80
2014,08,05,12,03,22.70
2014,08,05,12,04,22.70
2014,08,05,12,05,22.80
2014,08,05,12,06,22.80
2014,08,05,12,07,22.70
2014,08,05,12,08,22.60
2014,08,05,12,09,22.50
2014,08,05,12,10,22.40
2014,08,05,12,11,22.40
2014,08,05,12,12,22.50
2014,08,05,12,13,22.50
2014,08,05,12,14,22.40
2014,08,05,12,15,22.50
2014,08,05,12,16,22.60
2014,08,05,12,17,22.70
2014,08,05,12,18,22.70
2014,08,05,12,19,22.80
2014,08,05,12,20,22.90
2014,08,05,12,21,22.90
2014,08,05,12,22,22.90
2014,08,05,12,23,22.90
2014,08,05,12,24,22.80
2014,08,05,12,25,22.70
2014,08,05,12,26,22.70
2014,08,05,12,27,22.70
2014,08,05,12,28,22.80
2014,08,05,12,29,22.90
2014,08,05,12,30,22.90
2014,08,05,12,31,22.90
2014,08,05,12,32,22.80
2014,08,05,12,33,22.70
2014,08,05,12,34,22.70
2014,08,05,12,35,22.70
2014,08,05,12,36,22.80
2014,08,05,12,37,22.80
2014,08,05,12,38,22.80
2014,08,05,12,39,22.90
2014,08,05,12,40,22.90
2014,08,05,12,41,23.00
2014,08,05,12,42,23.10
2014,08,05,12,43,23.20
2014,08,05,12,44,23.20
2014,08,05,12,45,23.20
2014,08,05,12,46,23.20
2014,08,05,12,47,23.20
2014,08,05,12,48,23.30
2014,08,05,12,49,23.30
2014,08,05,12,50,23.30
2014,08,05,12,51,23.30
2014,08,05,12,52,23.40
2014,08,05,12,53,23.40
2014,08,05,12,54,23.40
2014,08,05,12,55,23.40
2014,08,05,12,56,23.40
2014,08,05,12,57,23.50
2014,08,05,12,58,23.50
2014,08,05,12,59,23.60
2014,08,05,13,00,23.50
2014,08,05,13,01,23.40
2014,08,05,13,02,23.40
2014,08,05,13,03,23.30
2014,08,05,13,04,23.30
2014,08,05,13,05,23.30
2014,08,05,13,06,23.30
2014,08,05,13,07,23.40
2014,08,05,13,08,23.50
2014,08,05,13,09,23.60
2014,08,05,13,10,23.50
2014,08,05,13,11,23.40
2014,08,05,13,12,23.30
2014,08,05,13,13,23.20
2014,08,05,13,14,23.10
2014,08,05,13,15,23.20
2014,08,05,13,16,23.20
2014,08,05,13,17,23.30
2014,08,05,13,18,23.40
2014,08,05,13,19,23.40
2014,08,05,13,20,23.40
2014,08,05,13,21,23.50
2014,08,05,13,22,23.50
2014,08,05,13,23,23.60
2014,08,05,13,24,23.60
2014,08,05,13,25,23.50
2014,08,05,13,26,23.40
2014,08,05,13,27,23.40
2014,08,05,13,28,23.40
2014,08,05,13,29,23.40
2014,08,05,13,30,23.50
2014,08,05,13,31,23.50
2014,08,05,13,32,23.50
2014,08,05,13,33,23.50
2014,08,05,13,34,23.50
2014,08,05,13,35,23.50
2014,08,05,13,36,23.40
2014,08,05,13,37,23.40
2014,08,05,13,38,23.50
2014,08,05,13,39,23.50
2014,08,05,13,40,23.60
2014,08,05,13,41,23.60
2014,08,05,13,42,23.70
2014,08,05,13,43,23.70
2014,08,05,13,44,23.70
2014,08,05,13,45,23.70
2014,08,05,13,46,23.70
2014,08,05,13,47,23.70
2014,08,05,13,48,23.60
2014,08,05,13,49,23.60
2014,08,05,13,50,23.60
2014,08,05,13,51,23.60
2014,08,05,13,52,23.60
2014,08,05,13,53,23.70
2014,08,05,13,54,23.70
2014,08,05,13,55,23.70
2014,08,05,13,56,23.80
2014,08,05,13,57,23.90
2014,08,05,13,58,23.90
2014,08,05,13,59,24.00
2014,08,05,14,00,24.10
2014,08,05,14,01,24.20
2014,08,05,14,02,24.30
2014,08,05,14,03,24.30
2014,08,05,14,04,24.40
2014,08,05,14,05,24.40
2014,08,05,14,06,24.50
2014,08,05,14,07,24.50
2014,08,05,14,08,24.40
2014,08,05,14,09,24.40
2014,08,05,14,10,24.40
2014,08,05,14,11,24.50
2014,08,05,14,12,24.40
2014,08,05,14,13,24.40
2014,08,05,14,14,24.30
2014,08,05,14,15,24.30
2014,08,05,14,16,24.30
2014,08,05,14,17,24.40
2014,08,05,14,18,24.50
2014,08,05,14,19,24.50
2014,08,05,14,20,24.70
2014,08,05,14,21,24.90
2014,08,05,14,22,25.00
2014,08,05,14,23,25.10
2014,08,05,14,24,25.30
2014,08,05,14,25,25.40
2014,08,05,14,26,25.40
2014,08,05,14,27,25.40
2014,08,05,14,28,25.40
2014,08,05,14,29,25.40
2014,08,05,14,30,25.50
2014,08,05,14,31,25.60
2014,08,05,14,32,25.60
2014,08,05,14,33,25.60
2014,08,05,14,34,25.60
2014,08,05,14,35,25.60
2014,08,05,14,36,25.50
2014,08,05,14,37,25.40
2014,08,05,14,38,25.20
2014,08,05,14,39,25.10
2014,08,05,14,40,25.00
2014,08,05,14,41,24.90
2014,08,05,14,42,24.80
2014,08,05,14,43,24.70
2014,08,05,14,44,24.60
2014,08,05,14,45,24.50
2014,08,05,14,46,24.30
2014,08,05,14,47,24.10
2014,08,05,14,48,24.00
2014,08,05,14,49,23.80
2014,08,05,14,50,23.70
2014,08,05,14,51,23.60
2014,08,05,14,52,23.60
2014,08,05,14,53,23.60
2014,08,05,14,54,23.60
2014,08,05,14,55,23.70
2014,08,05,14,56,23.80
2014,08,05,14,57,23.80
2014,08,05,14,58,23.80
2014,08,05,14,59,23.90
2014,08,05,15,00,23.90
2014,08,05,15,01,24.00
2014,08,05,15,02,24.10
2014,08,05,15,03,24.10
2014,08,05,15,04,24.10
2014,08,05,15,05,24.20
2014,08,05,15,06,24.20
2014,08,05,15,07,24.20
2014,08,05,15,08,24.20
2014,08,05,15,09,24.30
2014,08,05,15,10,24.30
2014,08,05,15,11,24.30
2014,08,05,15,12,24.30
2014,08,05,15,13,24.30
2014,08,05,15,14,24.30
2014,08,05,15,15,24.30
2014,08,05,15,16,24.30
2014,08,05,15,17,24.20
2014,08,05,15,18,24.30
2014,08,05,15,19,24.30
2014,08,05,15,20,24.30
2014,08,05,15,21,24.20
2014,08,05,15,22,24.30
2014,08,05,15,23,24.30
2014,08,05,15,24,24.30
2014,08,05,15,25,24.40
2014,08,05,15,26,24.50
2014,08,05,15,27,24.60
2014,08,05,15,28,24.60
2014,08,05,15,29,24.70
2014,08,05,15,30,24.70
2014,08,05,15,31,24.70
2014,08,05,15,32,24.80
2014,08,05,15,33,24.90
2014,08,05,15,34,25.00
2014,08,05,15,35,25.00
2014,08,05,15,36,25.10
2014,08,05,15,37,25.10
2014,08,05,15,38,25.10
2014,08,05,15,39,25.00
2014,08,05,15,40,24.90
2014,08,05,15,41,24.80
2014,08,05,15,42,24.80
2014,08,05,15,43,24.70
2014,08,05,15,44,24.70
2014,08,05,15,45,24.70
2014,08,05,15,46,24.80
2014,08,05,15,47,24.80
2014,08,05,15,48,24.80
2014,08,05,15,49,24.80
2014,08,05,15,50,24.90
2014,08,05,15,51,24.90
2014,08,05,15,52,24.90
2014,08,05,15,53,24.90
2014,08,05,15,54,24.80
2014,08,05,15,55,24.70
2014,08,05,15,56,24.70
2014,08,05,15,57,24.60
2014,08,05,15,58,24.60
2014,08,05,15,59,24.60
2014,08,05,16,00,24.60
2014,08,05,16,01,24.50
2014,08,05,16,02,24.50
2014,08,05,16,03,24.40
2014,08,05,16,04,24.40
2014,08,05,16,05,24.30
2014,08,05,16,06,24.30
2014,08,05,16,07,24.20
2014,08,05,16,08,24.20
2014,08,05,16,09,24.20
2014,08,05,16,10,24.20
2014,08,05,16,11,24.20
2014,08,05,16,12,24.20
2014,08,05,16,13,24.20
2014,08,05,16,14,24.20
2014,08,05,16,15,24.30
2014,08,05,16,16,24.40
2014,08,05,16,17,24.40
2014,08,05,16,18,24.40
2014,08,05,16,19,24.50
2014,08,05,16,20,24.40
2014,08,05,16,21,24.50
2014,08,05,16,22,24.50
2014,08,05,16,23,24.50
2014,08,05,16,24,24.60
2014,08,05,16,25,24.60
2014,08,05,16,26,24.70
2014,08,05,16,27,24.60
2014,08,05,16,28,24.60
2014,08,05,16,29,24.50
2014,08,05,16,30,24.50
2014,08,05,16,31,24.40
2014,08,05,16,32,24.40
2014,08,05,16,33,24.30
2014,08,05,16,34,24.20
2014,08,05,16,35,24.10
2014,08,05,16,36,23.90
2014,08,05,16,37,23.80
2014,08,05,16,38,23.70
2014,08,05,16,39,23.70
2014,08,05,16,40,23.60
2014,08,05,16,41,23.60
2014,08,05,16,42,23.50
2014,08,05,16,43,23.60
2014,08,05,16,44,23.60
2014,08,05,16,45,23.60
2014,08,05,16,46,23.70
2014,08,05,16,47,23.70
2014,08,05,16,48,23.80
2014,08,05,16,49,23.80
2014,08,05,16,50,23.80
2014,08,05,16,51,23.80
2014,08,05,16,52,23.80
2014,08,05,16,53,23.70
2014,08,05,16,54,23.70
2014,08,05,16,55,23.60
2014,08,05,16,56,23.40
2014,08,05,16,57,23.30
2014,08,05,16,58,23.20
2014,08,05,16,59,23.20
2014,08,05,17,00,23.10
2014,08,05,17,01,23.10
2014,08,05,17,02,23.10
2014,08,05,17,03,23.10
2014,08,05,17,04,23.10
2014,08,05,17,05,23.10
2014,08,05,17,06,23.10
2014,08,05,17,07,23.10
2014,08,05,17,08,23.20
2014,08,05,17,09,23.20
2014,08,05,17,10,23.20
2014,08,05,17,11,23.20
2014,08,05,17,12,23.20
2014,08,05,17,13,23.20
2014,08,05,17,14,23.20
2014,08,05,17,15,23.10
2014,08,05,17,16,23.00
2014,08,05,17,17,23.00
2014,08,05,17,18,22.90
2014,08,05,17,19,22.80